[[{"header":{"parameterUnit":"m.s-1","parameterCategory":1,"la1":30.2991,"la2":30.254,"lo1":-89.0895,"lo2":-89.0444,"dy":0.0017,"dx":0.0017,"nx":28,"ny":28,"refTime":"2024-03-07T09:00:00:Z","depth":0,"parameterNumber":2,"parameterNumberName":"U-component_of_WINDS"},"data":[0,0,0,0,0,0,0,0,0,0,0,0,0,0,0,0,0,0,0,0,0,0,0,0,0,0,0,0,0,0,0,0,0,0,0,0,0,0,0,0,0,0,0,0,0,0,0,0,0,0,0,0,0,0,0,0,0,0,2.1202,2.1202,0,2.1232,2.1232,2.1233,2.1201,2.12,2.1199,2.1198,2.1228,2.123,2.1232,0,0,0,0,0,0,0,0,0,0,0,0,0,2.1116,2.1117,2.1201,2.1202,2.1202,2.1232,2.1232,2.1233,2.1201,2.12,2.1198,2.1197,2.1228,2.123,2.1232,0,0,0,0,0,0,0,0,0,0,0,0,0,2.115,2.1118,2.1201,2.119,2.1189,2.1232,2.1232,2.1233,2.1202,2.12,2.1198,2.1196,2.1227,2.123,2.1233,2.1288,0,0,2.1242,2.1243,0,0,0,0,0,0,0,0,2.1148,2.1153,2.1191,2.1191,2.119,2.1211,2.1213,2.1251,2.1202,2.1197,2.1197,2.1195,2.1224,2.1227,2.1237,2.1289,2.129,2.1242,2.1244,2.1245,2.1246,0,0,0,0,0,0,0,2.1146,2.1152,2.1213,2.1192,2.1191,2.1183,2.1186,2.122,2.122,2.1197,2.1195,2.1199,2.1223,2.1234,2.1237,2.1291,2.1242,2.1244,2.1246,2.1247,2.1389,2.1391,0,0,0,0,0,0,2.1145,2.115,2.1213,2.1214,2.1164,2.1186,2.119,2.1206,2.122,2.122,2.1201,2.1198,2.123,2.1234,2.1238,2.1303,2.1245,2.1248,2.1249,2.1387,2.139,2.1392,0,0,0,0,0,0,2.1143,2.1151,2.1211,2.1182,2.1189,2.119,2.1209,2.1208,2.1218,2.1222,2.1222,2.1212,2.1229,2.1234,2.1276,2.1304,2.1249,2.1252,2.1385,2.1388,2.1391,2.1434,0,0,0,0,0,0,2.1141,2.115,2.1171,2.1182,2.119,2.1248,2.121,2.121,2.1224,2.122,2.1233,2.1233,2.1228,2.1271,2.1278,2.1307,2.1254,2.1383,2.1386,2.139,2.143,2.1438,2.1445,0,0,0,0,0,2.1138,2.1182,2.1172,2.118,2.1217,2.125,2.1255,2.1248,2.1226,2.1247,2.125,2.1233,2.13,2.1276,2.1284,2.1314,2.1381,2.1385,2.139,2.1427,2.1437,2.1445,0,0,0,0,0,0,2.1174,2.1183,2.1173,2.1222,2.1236,2.1245,2.1271,2.1258,2.1278,2.1274,2.1264,2.1267,2.1311,2.1316,2.129,2.1367,2.1337,2.1343,2.1362,2.1372,2.1379,2.1377,2.1256,0,0,0,0,0,2.1188,2.1214,2.1221,2.1264,2.1271,2.127,2.1284,2.1278,2.1291,2.1297,2.1302,2.1316,2.134,2.1356,2.1379,2.1431,2.1433,2.1455,2.1463,2.1469,2.1475,2.1503,2.1513,2.1407,2.1407,2.1407,0,0,2.1216,2.1225,2.1242,2.1271,2.1281,2.1308,2.1275,2.1306,2.1326,2.1301,2.1341,2.1346,2.136,2.1407,2.1428,2.1413,2.1504,2.1475,2.148,2.1482,2.1508,2.1518,2.1527,2.141,2.1409,2.1409,0,0,2.1282,2.1292,2.1328,2.1339,2.1354,2.1353,2.1362,2.1373,2.1376,2.1415,2.1397,2.1421,2.1463,2.1474,2.1485,2.1556,2.1541,2.1563,2.1603,2.163,2.1639,2.1646,2.1671,2.168,2.1569,2.1569,2.1569,0,2.1316,2.1357,2.1349,2.1381,2.1394,2.1373,2.141,2.1421,2.1443,2.1452,2.1435,2.1487,2.1495,2.1545,2.1562,2.1572,2.1582,2.1562,2.1638,2.1645,2.1652,2.1676,2.1686,2.1572,2.1571,2.1571,2.1571,0,2.1398,2.1426,2.1454,2.1476,2.1492,2.1527,2.1524,2.1541,2.1533,2.1534,2.1575,2.1584,2.1608,2.1619,2.1612,2.1668,2.1658,2.164,2.1608,2.1665,2.1687,2.1696,2.1575,2.1574,2.1574,2.1573,0,0,2.1487,2.1504,2.1515,2.1524,2.154,2.1562,2.1595,2.1619,2.1634,2.165,2.1678,2.1714,2.1697,2.1709,2.1703,2.1727,2.1782,2.1706,2.1706,2.172,2.1845,2.1859,2.187,2.1773,2.1774,2.1776,2.1844,0,2.1554,2.1612,2.1606,2.1661,2.1688,2.1669,2.1698,2.171,2.1712,2.1734,2.1736,2.1762,2.1738,2.1745,2.1768,2.1771,2.1808,2.1766,2.1798,2.1799,2.1795,2.1881,2.1896,2.196,2.1852,2.1854,2.1855,0,2.1639,2.1658,2.1717,2.1728,2.1739,2.1766,2.1787,2.1809,2.1822,2.1822,2.1836,2.1826,2.1859,2.1827,2.1873,2.1845,2.1858,2.1861,2.1863,2.1866,2.1831,2.1886,2.198,2.1989,2.1869,2.1868,2.1867,0,2.1699,2.1739,2.1779,2.1788,2.1803,2.1822,2.1829,2.1841,2.1855,2.1874,2.1883,2.1906,2.1918,2.1935,2.193,2.1908,2.1977,2.1945,2.1978,2.1978,2.1993,2.1992,2.209,2.2001,2.2001,2.2001,2.2001,0,2.1774,2.181,2.1806,2.1831,2.1871,2.1864,2.1904,2.1908,2.1919,2.1944,2.1929,2.1952,2.1945,2.1968,2.1965,2.2003,2.2009,2.2009,2.2008,2.2011,2.2011,2.2019,2.2014,2.2004,2.2003,2.2003,2.2002,0,2.1847,2.1846,2.1888,2.1899,2.1902,2.1932,2.194,2.1964,2.1964,2.1996,2.2003,2.2004,2.2031,2.2028,2.2058,2.2055,2.2103,2.2097,2.2099,2.2097,2.213,2.2127,2.2237,2.225,2.2153,2.2154,2.2155,0,2.1895,2.1923,2.1936,2.1952,2.1961,2.1986,2.2001,2.1995,2.2011,2.2029,2.205,2.2076,2.2096,2.2139,2.2142,2.2165,2.2159,2.2196,2.2162,2.2164,2.2159,2.2158,2.216,2.2202,2.2203,2.2204,2.2205,0,2.198,2.1978,2.2001,2.2023,2.2042,2.2059,2.2075,2.2089,2.2084,2.2103,2.213,2.2146,2.2177,2.2202,2.2224,2.223,2.2217,2.2216,2.2224,2.2227,2.2227,2.2228,2.2117,2.2213,2.2212,2.2212,2.2211,2.2211,2.2042,2.2066,2.2079,2.2105,2.2116,2.2131,2.2154,2.2157,2.218,2.2205,2.22,2.2231,2.2244,2.2271,2.228,2.2304,2.2291,2.2303,2.2307,2.231,2.2314,2.2224,2.2308,2.2308,2.2308,2.2307,2.2307,0,2.2126,2.2134,2.2158,2.218,2.2201,2.2187,2.2204,2.2221,2.2249,2.2263,2.2283,2.2314,2.2339,2.2344,2.2368,2.2386,2.238,2.2392,2.2391,2.2392,2.2324,2.2314,2.2396,2.2396,2.2396,2.2396,2.2396,2.2396,2.2172,2.2212,2.2212,2.2257,2.2264,2.2295,2.2306,2.2319,2.233,2.2366,2.2387,2.239,2.2401,2.2425,2.2447,2.2448,2.2457,2.2471,2.247,2.2406,2.2397,2.2389,2.2379,2.2473,2.2474,2.2536,2.2536,2.2537]},{"header":{"parameterUnit":"m.s-1","parameterCategory":1,"la1":30.2991,"la2":30.254,"lo1":-89.0895,"lo2":-89.0444,"dy":0.0017,"dx":0.0017,"nx":28,"ny":28,"refTime":"2024-03-07T09:00:00:Z","depth":0,"parameterNumber":3,"parameterNumberName":"V-component_of_WINDS"},"data":[0,0,0,0,0,0,0,0,0,0,0,0,0,0,0,0,0,0,0,0,0,0,0,0,0,0,0,0,0,0,0,0,0,0,0,0,0,0,0,0,0,0,0,0,0,0,0,0,0,0,0,0,0,0,0,0,0,0,5.1599,5.16,0,5.1702,5.1703,5.1704,5.1702,5.1701,5.1699,5.1698,5.1802,5.1806,5.181,0,0,0,0,0,0,0,0,0,0,0,0,0,5.1401,5.1405,5.1599,5.16,5.1602,5.1702,5.1703,5.1704,5.1702,5.1701,5.1699,5.1697,5.1801,5.1805,5.181,0,0,0,0,0,0,0,0,0,0,0,0,0,5.1494,5.1406,5.1599,5.1613,5.1615,5.1701,5.1703,5.1705,5.1703,5.1701,5.1699,5.1697,5.1799,5.1805,5.1811,5.189,0,0,5.183,5.1832,0,0,0,0,0,0,0,0,5.1488,5.1501,5.1609,5.1612,5.1615,5.1687,5.1671,5.1767,5.1703,5.1669,5.1698,5.1696,5.1765,5.1774,5.1798,5.1895,5.1899,5.183,5.1834,5.1836,5.1838,0,0,0,0,0,0,0,5.1482,5.1496,5.164,5.1611,5.1614,5.1614,5.1625,5.1689,5.1728,5.1672,5.1672,5.1685,5.1766,5.1792,5.18,5.1901,5.183,5.1835,5.1839,5.1841,5.207,5.2072,0,0,0,0,0,0,5.1473,5.1491,5.1636,5.1643,5.1545,5.1619,5.1631,5.1666,5.1727,5.1734,5.1686,5.1684,5.1783,5.1793,5.1804,5.1902,5.1836,5.1842,5.1846,5.2067,5.207,5.2073,0,0,0,0,0,0,5.1468,5.1486,5.1632,5.1567,5.1586,5.1625,5.1664,5.1669,5.1695,5.1738,5.1744,5.1705,5.1781,5.1795,5.1869,5.1905,5.1845,5.185,5.2065,5.2068,5.2072,5.2098,0,0,0,0,0,0,5.1463,5.1484,5.1515,5.1568,5.1589,5.1696,5.1666,5.1673,5.1705,5.1703,5.1757,5.1764,5.1781,5.186,5.1875,5.1913,5.1855,5.2062,5.2066,5.2071,5.2094,5.2102,5.2108,0,0,0,0,0,5.1456,5.1517,5.1516,5.1534,5.1628,5.1698,5.171,5.1728,5.1708,5.1739,5.1767,5.1763,5.1899,5.1868,5.1885,5.1925,5.2059,5.2065,5.207,5.209,5.21,5.2108,0,0,0,0,0,0,5.1466,5.1524,5.1524,5.1604,5.1646,5.1697,5.1737,5.1738,5.1786,5.1782,5.1802,5.1815,5.1889,5.1914,5.1878,5.2005,5.1977,5.1986,5.1986,5.1996,5.2003,5.1996,5.186,0,0,0,0,0,5.1478,5.153,5.1578,5.1644,5.1666,5.1698,5.1729,5.1739,5.1784,5.1801,5.1834,5.1877,5.193,5.1964,5.2015,5.2097,5.211,5.2133,5.214,5.2146,5.2154,5.2201,5.2213,5.2091,5.2091,5.2091,0,0,5.1502,5.1541,5.1572,5.1647,5.1681,5.1735,5.1713,5.177,5.181,5.181,5.1882,5.1908,5.1957,5.2036,5.2072,5.2059,5.2191,5.2153,5.2158,5.2162,5.2208,5.2219,5.223,5.2095,5.2094,5.2093,0,0,5.1575,5.1609,5.1669,5.1704,5.1756,5.1777,5.1791,5.1843,5.1861,5.1933,5.1935,5.1983,5.2072,5.2108,5.2138,5.2226,5.2224,5.2242,5.228,5.2326,5.2336,5.2344,5.2377,5.2388,5.2249,5.2249,5.2249,0,5.1599,5.168,5.1699,5.1758,5.1791,5.1794,5.1855,5.1888,5.1953,5.1977,5.1961,5.2075,5.2108,5.2196,5.2218,5.2242,5.2259,5.2236,5.2333,5.2342,5.235,5.2381,5.2394,5.2251,5.2251,5.2251,5.2251,0,5.1708,5.1765,5.1807,5.1871,5.191,5.1969,5.1997,5.2033,5.2041,5.2064,5.2139,5.2179,5.2238,5.226,5.2267,5.235,5.234,5.2329,5.23,5.2363,5.2393,5.2405,5.2254,5.2253,5.2253,5.2252,0,0,5.1789,5.1865,5.188,5.191,5.1969,5.2013,5.2073,5.2132,5.2163,5.2208,5.226,5.2337,5.2327,5.2361,5.2372,5.2412,5.2481,5.2396,5.2397,5.2411,5.2576,5.2585,5.2599,5.248,5.2482,5.2484,5.2572,0,5.1869,5.1976,5.1996,5.2089,5.2143,5.2147,5.2199,5.2241,5.2264,5.2313,5.2338,5.2393,5.2375,5.2396,5.2436,5.2464,5.2515,5.2458,5.2529,5.2531,5.2517,5.2614,5.2624,5.2705,5.2584,5.2586,5.2587,0,5.1976,5.2026,5.2125,5.2178,5.2201,5.2248,5.2305,5.2351,5.2398,5.2413,5.2451,5.2459,5.2522,5.249,5.2578,5.2539,5.2569,5.2588,5.2591,5.2599,5.2563,5.2626,5.2731,5.2744,5.2606,5.2604,5.2603,0,5.2027,5.2119,5.2191,5.2216,5.2279,5.2312,5.234,5.2385,5.242,5.247,5.2493,5.2548,5.2579,5.2622,5.2645,5.2619,5.2731,5.2701,5.2745,5.2745,5.2769,5.2767,5.2882,5.2787,5.2786,5.2786,5.2786,0,5.2115,5.2175,5.2215,5.2259,5.2328,5.2349,5.2417,5.2444,5.2485,5.2534,5.2541,5.2587,5.2613,5.2664,5.2682,5.2752,5.2766,5.2779,5.2784,5.278,5.2778,5.28,5.2795,5.2789,5.2789,5.2788,5.2788,0,5.2183,5.2212,5.2291,5.2345,5.236,5.2408,5.2454,5.2497,5.2521,5.2584,5.26,5.2637,5.2697,5.2724,5.2797,5.2809,5.289,5.289,5.2875,5.2876,5.2919,5.2915,5.3053,5.3072,5.2963,5.2964,5.2965,0,5.2237,5.2285,5.2344,5.2379,5.2408,5.2463,5.2499,5.2522,5.256,5.2619,5.2655,5.2715,5.2765,5.286,5.2894,5.2951,5.2952,5.2997,5.2961,5.2956,5.2955,5.2952,5.2957,5.3003,5.3004,5.3005,5.3006,0,5.2331,5.2344,5.2396,5.2454,5.2497,5.2544,5.2589,5.2616,5.2647,5.2689,5.2751,5.2789,5.2865,5.2926,5.2985,5.3013,5.3015,5.3017,5.303,5.3027,5.3017,5.3024,5.2894,5.3014,5.3013,5.3012,5.3012,5.3012,5.2395,5.2438,5.2488,5.2546,5.2583,5.2626,5.267,5.27,5.2752,5.2816,5.2827,5.2893,5.2941,5.3021,5.3052,5.3104,5.3093,5.3112,5.3117,5.3122,5.3125,5.3008,5.3115,5.3114,5.3114,5.3114,5.3114,0,5.2491,5.2523,5.2577,5.2641,5.2687,5.2686,5.2736,5.2775,5.2834,5.2878,5.2928,5.3,5.3058,5.3097,5.3157,5.3191,5.3194,5.3206,5.3204,5.3211,5.3131,5.3114,5.3203,5.3203,5.3203,5.3203,5.3203,5.3203,5.2546,5.2619,5.2637,5.2729,5.2761,5.2827,5.2856,5.2896,5.2932,5.3012,5.3062,5.3087,5.313,5.3193,5.3247,5.3257,5.3279,5.3292,5.3301,5.3226,5.3217,5.3208,5.3192,5.3296,5.3296,5.3378,5.3378,5.3379]}]]